Location: Unspecified
(0.0000°N, 0.0000°E)
Time: 12:01:32
(UTC+00:00)

Transit 4A - Pass Details

Date: 17 December 2018
Orbit: 864 x 981 km, 66.8° (Epoch: 25 March)

Event Time Altitude Azimuth Distance (km) Brightness Sun altitude
Rises 02:13:05 0° 221° (SW) 3,487 - -49.3°
Reaches altitude 10° 02:15:56 10° 233° (SW) 2,531 - -48.8°
Maximum altitude 02:20:47 27° 289° (WNW) 1,594 - -47.8°
Drops below altitude 10° 02:25:35 10° 346° (NNW) 2,493 - -46.8°
Sets 02:28:24 0° 358° (N) 3,426 - -46.2°
